Location: Newark
(52.4787°S, 179.0532°W)
Time: 13:12:07
(UTC+00:00)

Vanguard 1 - Pass Details

Date: 19 November 2019
Orbit: 651 x 3832 km, 34.3° (Epoch: 11 December)

Event Time Altitude Azimuth Distance (km) Brightness Sun altitude
Rises 08:40:06 0° 347° (NNW) 5,082 13.4 -8.0°
Reaches altitude 10° 08:44:12 10° 2° (N) 4,573 13.0 -8.5°
Maximum altitude 08:53:18 21° 45° (NE) 4,629 12.9 -9.4°
Drops below altitude 10° 09:05:42 10° 84° (E) 6,458 13.8 -10.5°
Sets 09:13:15 0° 96° (E) 7,826 14.4 -11.2°
